Погода в Джиджеле

Алжир     36°48′31″N   5°45′28″E
темп.,
°C
ветер,
м/с
пор.,
м/с
влажн.,
%
обл.,
%
осадки,
мм/ч
давл.,
гПа
погр.,
м
13 апреля, вт
вт1301:00+10св229399 0.6 1026324
04:00+10в1290100 0.0 1025203
07:00+10вюв2287100 0.0 1025181
10:00+14всв236512 0.0 1025926
13:00+16ссв636276 0.0 1024735
16:00+14св436727 0.0 1023655
19:00+10всв228237 0.0 102269
22:00+10ююв228282 0.0 102346
14 апреля, ср
ср1401:00+9ююв118699 0.0 102236
04:00+10юв228428 0.0 101940
07:00+11юв1177100 0.0 101940
10:00+14с1171100 0.2 1019258
13:00+18ссв4268100 0.4 1017646
16:00+15с2180100 1.8 1017438
19:00+12сз2295100 4.4 1018137
22:00+12ююв1296100 6.8 101879
15 апреля, чт
чт1501:00+12ссв0099100 12.0 101797
04:00+12св1299100 2.3 1016158
07:00+11ссв1299100 7.2 1016183
10:00+13ссв2193100 2.5 1015301
13:00+15ссв3287100 3.0 1013522
16:00+12св2396100 0.9 1011306
19:00+12св2295100 1.3 1011352
22:00+11всв2398100 2.1 1010208
16 апреля, пт
пт1601:00+12вюв1198100 2.8 1008187
04:00+12ю1196100 1.4 100565
07:00+12св0198100 10.5 100571
10:00+12ссв81098100 6.6 1007763
13:00+10с5896100 17.1 1011647
16:00+10с3696100 5.2 1011552
19:00+10сз3597100 10.4 1012384
22:00+10зсз468991 2.2 1014319
17 апреля, сб
сб1701:00+10з468497 3.0 1013322
04:00+8юз338530 0.2 1013130
07:00+8ю337893 0.1 101260
10:00+10зсз5583100 0.8 1013804
13:00+9юз238113 4.4 1012445
16:00+12сз4669100 1.2 10101136
19:00+9сз8128765 5.1 10141069
22:00+9сз61188100 3.3 1016937